Regional Weather Roundup
Issued by NWS

Home | Current Version | Previous Version | Text Only | Print | Product List | Glossary On
Versions: 1 2 3 4 5 6 7 8 9 10 11 12 13 14 15 16 17 18 19 20 21 22 23 24 25 26 27 28 29 30 31 32 33 34 35 36 37 38 39 40 41 42 43 44 45 46 47 48 49 50
636
ASUS42 KFFC 240410
RWRGA
WEATHER ROUNDUP FOR GEORGIA
NATIONAL WEATHER SERVICE PEACHTREE CITY GA
1200 AM EDT THU MAY 24 2018

NOTE: "FAIR" INDICATES FEW OR NO CLOUDS BELOW 12,000 FEET WITH NO
SIGNIFICANT WEATHER AND/OR OBSTRUCTIONS TO VISIBILITY.

* = USE WITH CAUTION. THE STATIONS MARKED WITH AN ASTERISK MAY NOT
REPORT WEATHER SUCH AS PRECIPITATION, FOG, OR THUNDER AND ARE NOT
QUALITY CONTROLLED BY NWS.

THE REMARK "TC" DENOTES TEMPERATURE READING IN DEGREES CELSIUS.

GAZ001>058-240500-
NORTH GEORGIA

CITY           SKY/WX    TMP DP  RH WIND       PRES   REMARKS
ATLANTA        MOCLDY    73  69  87 SE3       30.10R
ATHENS         FAIR      69  69 100 CALM      30.10R
CHAMBLEE       FAIR      72  69  90 SE3       30.10S
PEACHTREE CITY FAIR      72  71  97 CALM      30.09S
ROME           FAIR      71  69  93 CALM      30.08R
WEST ATLANTA   MOCLDY    75  72  90 SE6       30.10R
GAINESVILLE    FAIR      71  70  96 SE3       30.13S
CARTERSVILLE   FAIR      69  69 100 CALM      30.10R


CITY           SKY/WX    TMP DP  RH WIND       PRES   REMARKS
DALTON*        FAIR      70  70 100 CALM      30.11R
LAWRENCEVILLE* CLOUDY    70  69  97 CALM      30.11R
MARIETTA       FAIR      73  69  89 E5        30.10R
KENNESAW*      FAIR      71  69  93 CALM      30.11R
CANTON*        FAIR      73  72  94 CALM      30.13S
BLAIRSVILLE*   FAIR      68  67  96 CALM      30.16R
$$

GAZ059>098-102>109-240500-
CENTRAL GEORGIA

CITY           SKY/WX    TMP DP  RH WIND       PRES   REMARKS
AUGUSTA-BUSH   FOG       70  70 100 CALM      30.09R VSB 1/4
AUGUSTA-DANIEL FAIR      74  72  93 SE3       30.10R
COLUMBUS       CLOUDY    76  71  85 SW7       30.07S
MACON          CLOUDY    73  73 100 SE6       30.07F
ROBINS AFB     MOCLDY    73  73  98 SE6       30.07R


CITY           SKY/WX    TMP DP  RH WIND       PRES   REMARKS
LAGRANGE*      MOCLDY    75  74  98 CALM      30.09S
SYLVANIA*      FAIR      72  71  99 CALM      30.10S
MILLEDGEVILLE* MOCLDY    73  72  94 CALM      30.09R
$$

GAZ099>101-110>166-240500-
SOUTH GEORGIA

CITY           SKY/WX    TMP DP  RH WIND       PRES   REMARKS
SAVANNAH       MOCLDY    75  70  84 SW5       30.09S
VALDOSTA       FAIR      70  69  97 CALM      30.09S
ALMA           FAIR      73  70  90 S5        30.08F
ST SIMONS      FAIR      77  72  84 SW7       30.09R
FT STEWART     MOCLDY    75  68  80 S3        30.07F
ALBANY         FAIR      73  71  93 CALM      30.10S
HUNTER AFB     FAIR      75  70  83 S5        30.06S
MOODY AFB      FAIR      70  70 100 S5        30.08S
BRUNSWICK      FAIR      75  70  83 SW7       30.10S


CITY           SKY/WX    TMP DP  RH WIND       PRES   REMARKS
BAINBRIDGE*    FAIR      73  73 100 CALM      30.09R
MOULTRIE*      FAIR      72  70  94 CALM      30.10S
VIDALIA*       CLOUDY    72  68  88 S7        30.10R
WAYCROSS*      FAIR      72  69  90 CALM      30.06R
DOUGLAS*       FAIR      72  70  94 CALM      30.10S
$$




USA.gov is the U.S. government's official web portal to all federal, state and local government web resources and services.